Location: Piubega
(45.2167°N, 10.5333°E)
Time: 21:27:35
(UTC+00:00)

Daily predictions for brighter satellites

Satellite Brightness Start Highest point End
(mag) Time Altitude Azimuth Time Altitude Azimuth Time Altitude Azimuth
FengYun 1-2 T 4.4 16:32:21 10° SSE 16:38:01 89° WSW 16:43:43 10° NNW
Meteor 1-4 Rocket 3.4 16:37:17 10° SSE 16:40:16 27° E 16:43:14 10° NNE
Cosmos 1455 Rocket 3.2 16:36:20 10° S 16:40:46 87° W 16:45:16 10° N
Cosmos 2237 4.5 16:36:33 10° S 16:42:02 50° ESE 16:47:33 10° NE
Cosmos 1455 4.1 16:41:18 10° E 16:42:20 11° E 16:43:22 10° ENE
GENESIS II 4.4 16:38:49 10° NNW 16:42:39 50° NE 16:46:29 10° SE
MOS 1-B 4.4 16:38:15 10° SSE 16:43:52 58° ENE 16:49:33 10° N
CORIOLIS 4.1 16:38:59 10° SSE 16:44:19 80° ENE 16:49:42 10° NNW
YAOGAN 1 4.2 16:42:30 10° E 16:44:49 14° ENE 16:47:07 10° NNE
FALCON 9 DEB 3.1 16:42:09 10° SW 16:44:58 48° SE 16:47:51 10° ENE
Cosmos 1825 4.1 16:44:12 10° NE 16:45:29 11° ENE 16:46:46 10° E
CENTAUR R/B 4.4 16:40:37 10° NW 16:46:01 21° NNE 16:51:59 10° ENE
Cosmos 1939 Rocket 3.0 16:42:19 10° SSE 16:46:18 84° WSW 16:50:23 10° NNW
NOSS 3-1 (A) 3.3 16:41:44 10° SSW 16:46:52 59° ESE 16:52:51 10° NE
Cosmos 1300 2.6 16:48:29 10° S 16:52:15 74° E 16:56:04 10° NNE
Cosmos 2278 Rocket 4.0 16:51:39 10° NNE 16:54:03 13° NE 16:56:26 10° ENE
AQUARIUS 4.3 16:49:36 10° SSE 16:54:05 83° WSW 16:58:37 10° NNW
USA 267 3.4 16:47:56 10° ESE 16:54:20 60° NNE 17:00:45 10° NW
Cosmos 1544 Rocket 3.5 16:51:20 10° S 16:55:47 78° E 17:00:14 10° N
Cosmos 1328 4.0 16:51:48 10° N 16:55:51 79° W 16:59:53 10° S
FALCON 9 DEB 3.7 16:55:31 10° SSW 16:58:45 41° SE 17:01:30 13° ENE
Cosmos 1605 Rocket 4.2 16:53:44 10° SSE 16:59:49 52° E 17:05:59 10° NNE
COSMOS 2428 4.1 16:56:43 10° SE 17:00:11 17° E 17:03:27 11° ENE
SL-16 R/B 2.5 16:56:15 10° SSW 17:01:54 73° WNW 17:07:37 10° NNE
deb Chang Zheng 4 3.5 16:58:04 10° SSE 17:02:13 61° ENE 17:06:25 10° N
FALCON 9 DEB 3.1 17:01:33 10° SW 17:04:24 49° SE 17:06:32 16° ENE
NOSS 2-3 (D) 4.1 17:02:30 10° SW 17:06:29 57° NW 17:11:10 10° NNE
Cosmos 332 Rocket 3.9 17:03:44 10° SSW 17:08:37 83° WNW 17:13:31 10° NNE
NOSS 3-1 (C) 3.8 17:03:41 10° SW 17:08:56 60° NW 17:15:09 10° NE
Cosmos 2322 Rocket 2.3 17:05:35 10° SSW 17:11:12 80° WNW 17:16:51 10° NNE
ARGOS 3.4 17:07:14 10° SE 17:12:24 48° ENE 17:17:37 10° N
Cosmos 2219 Rocket 3.1 17:07:55 10° SSE 17:12:30 27° ESE 17:17:07 10° NE
MOS 1-B Rocket 4.1 17:10:37 10° NNE 17:16:43 53° E 17:22:13 10° S
H-2A R/B 2.1 17:11:25 10° SSE 17:16:51 83° ENE 17:22:20 10° NNW
SMAP 4.5 17:12:39 10° S 17:17:03 42° W 17:21:30 10° NNW
FALCON 9 DEB 2.8 17:14:17 10° SW 17:17:12 62° SE 17:18:50 23° ENE
Cosmos 2360 Rocket 2.1 17:12:21 10° SSW 17:17:57 73° ESE 17:23:38 10° NNE
Cosmos 1140 Rocket 3.9 17:14:07 10° N 17:19:00 39° ENE 17:23:53 10° SE
Lacrosse 5 3.7 17:16:44 10° SE 17:19:04 13° ESE 17:19:23 13° ESE
H-2A R/B 3.1 17:16:00 10° SE 17:19:45 33° ENE 17:23:24 10° N
Cosmos 1934 Rocket 4.3 17:15:37 10° SSW 17:21:40 70° W 17:27:43 10° N
Cosmos 1408 2.7 17:18:29 10° N 17:21:58 47° ENE 17:25:24 10° SSE
Cosmos 1602 Rocket 3.4 17:17:56 10° N 17:22:17 78° E 17:26:36 10° SSE
Cosmos 1844 3.7 17:19:34 10° NNW 17:25:22 73° ENE 17:31:04 10° SSE
Cosmos 1932 4.4 17:23:04 10° NW 17:29:20 90° S 17:35:37 10° SSE
Okean O Rocket 1.5 17:25:02 10° SSE 17:29:22 81° ENE 17:33:45 10° NNW
Cosmos 407 Rocket 3.7 17:24:11 10° NNW 17:29:23 50° ENE 17:34:34 10° SE
X-37B 3.6 17:29:28 10° SW 17:30:03 10° SW 17:30:38 10° SSW
NOSS 2-2 (D) 3.7 17:27:55 10° S 17:31:01 32° ESE 17:31:43 29° E
Iridium 4 Rocket 4.0 17:27:14 10° N 17:32:03 62° W 17:37:18 10° SSW
COSMO-SKYMED 1 2.5 17:28:10 10° NNE 17:32:33 84° ESE 17:36:53 10° SSW
CZ-2C R/B 2.6 17:27:30 10° NNE 17:33:04 71° ESE 17:38:30 10° S
Cosmos 2228 3.1 17:31:20 10° S 17:35:36 53° E 17:39:54 10° NNE
Cosmos 2058 4.4 17:32:24 10° NNE 17:34:40 20° NE 17:34:40 20° NE
Cosmos 614 Rocket 4.4 17:31:45 10° NNW 17:36:48 65° WSW 17:41:51 10° S
IRAS Rocket 4.4 17:31:58 10° NNE 17:37:17 46° E 17:42:32 10° S
In-Cosmos 22 Rocket 4.0 17:32:20 10° N 17:37:41 88° ENE 17:43:02 10° S
SJ-11-01 4.2 17:34:07 10° SSE 17:38:48 83° ENE 17:43:33 10° NNW
Cosmos 2333 Rocket 2.3 17:33:33 10° S 17:39:02 54° ESE 17:44:36 10° NE
NOSS 2-2 (E) 3.0 17:36:07 10° SSW 17:39:25 56° ESE 17:40:32 36° ENE
CZ-4B R/B 3.6 17:33:50 10° S 17:39:29 70° WSW 17:45:08 10° NNW
Meteor 2-10 Rocket 3.7 17:34:13 10° SSW 17:39:42 80° WNW 17:44:59 10° N
Tiangong 3.5 17:38:44 10° WSW 17:41:02 18° SSW 17:43:00 12° SSE
CZ-4C R/B 2.6 17:38:04 10° NNE 17:41:22 74° ESE 17:44:33 10° S
Cosmos 1825 Rocket 3.5 17:39:19 10° N 17:43:34 54° ENE 17:47:48 10° SSE
Cosmos 2251 Rocket 4.1 17:39:51 10° NNW 17:45:00 60° WSW 17:50:08 10° S
Cosmos 44 4.3 17:41:20 10° SW 17:46:37 52° NW 17:51:49 10° NNE
Cosmos 1892 2.9 17:43:25 10° NNW 17:47:10 71° W 17:50:54 10° S
OE (NEXTSAT) 4.2 17:44:27 10° W 17:47:54 83° N 17:48:34 54° E
CSL-04 Rocket 4.4 17:48:04 29° E 17:49:20 33° ENE 17:54:13 10° N
Lacrosse 4 Rocket 4.0 17:47:50 10° WNW 17:51:16 23° WSW 17:54:44 10° SSW
Cosmos 1758 Rocket 3.6 17:48:08 10° NNW 17:52:28 76° W 17:56:49 10° S
FALCON 9 DEB 3.5 17:51:45 10° W 17:54:35 43° NNW 17:54:55 41° N
NOSS 5 (C) 4.3 17:52:19 10° NW 17:55:25 85° SW 17:56:22 45° SSE
Landsat 5 4.1 17:51:13 10° N 17:55:40 65° WNW 18:00:08 10° SSW
CZ-4C R/B 2.5 17:52:02 10° S 17:56:18 34° ESE 17:56:18 34° ESE
Cosmos 2322 3.6 17:52:10 10° SSW 17:57:49 68° ESE 18:02:40 14° NNE
Cosmos 1953 Rocket 3.6 17:55:06 10° N 17:59:30 53° ENE 18:00:34 42° ESE
Okean-O 3.0 18:00:16 42° ENE 18:00:16 42° ENE 18:04:12 10° N
USA 215 3.7 17:58:11 17° NE 18:03:11 56° NNW 18:09:32 10° WSW
Cosmos 1844 Rocket 3.6 17:58:37 10° NW 18:03:57 48° WSW 18:09:15 10° S
CZ-4 R/B 1.3 18:01:16 13° SSE 18:04:50 85° ENE 18:09:01 10° NNW
Cosmos 2061 Rocket 4.4 18:01:53 10° SSE 18:07:41 39° E 18:13:33 10° NNE
Cosmos 1459 Rocket 3.8 18:05:07 10° S 18:11:13 66° E 18:17:16 10° NNE
SL-8 R/B 3.6 18:10:17 10° WNW 18:15:05 76° NNE 18:15:43 64° ENE
USA 229 DEB 4.5 18:09:06 10° WSW 18:15:16 46° NW 18:21:27 12° NNE
USA 229 4.5 18:09:11 10° WSW 18:15:22 47° NW 18:21:32 12° NNE
Cosmos 1455 2.8 18:13:40 10° SSW 18:17:23 55° W 18:21:07 10° N
Cosmos 1190 Rocket 3.9 18:12:14 10° NNW 18:17:29 89° ENE 18:20:02 31° SSE
H-2A R/B 2.9 18:20:27 37° S 18:20:27 37° S 18:23:06 10° S
Cosmos 2056 Rocket 3.3 18:13:56 10° SSW 18:19:01 75° ESE 18:20:43 42° NE
Cosmos 292 Rocket 3.6 18:15:19 10° SSW 18:20:10 84° ESE 18:21:44 44° NNE
YAOGAN 1 2.9 18:16:05 10° S 18:20:23 66° WSW 18:24:42 10° NNW
Cosmos 1825 2.7 18:17:37 10° NNW 18:21:20 56° W 18:23:12 26° SSW
Cosmos 2100 Rocket 4.0 18:19:31 10° S 18:25:51 89° W 18:32:17 10° N
NOSS 2-2 (C) 3.9 18:23:37 10° SW 18:26:17 47° W 18:26:17 47° W
Cosmos 1606 Rocket 4.3 18:26:34 10° SSW 18:30:57 53° WNW 18:35:20 10° N
Cosmos 2173 Rocket 3.9 18:25:09 10° S 18:31:22 86° W 18:37:44 10° N
USA 267 3.9 18:33:17 22° SSE 18:37:26 50° SW 18:43:46 10° WNW
CENTAUR R/B 3.7 18:31:39 10° NNW 18:39:03 41° NE 18:40:07 39° NE
Cosmos 2278 Rocket 2.5 18:33:52 10° NNW 18:38:34 50° NNE 18:38:34 50° NNE
Cosmos 1802 Rocket 3.8 18:35:28 10° S 18:41:36 89° E 18:47:48 10° N
COSMOS 2428 2.7 18:38:03 10° SSW 18:43:44 77° WNW 18:45:33 45° NNE
MetOp-A 4.2 18:44:20 56° S 18:45:29 77° WSW 18:50:52 10° NNW
IRS-1C Rocket 4.5 18:43:15 25° S 18:46:14 61° WSW 18:51:29 10° NNW
SL-24 R/B - RUBIN 2 4.3 18:40:53 10° SW 18:46:55 70° NW 18:47:58 57° N
NOSS 3-2 (A) 4.2 18:48:25 10° NNW 18:55:37 52° NE 18:55:43 52° NE
Cosmos 1864 Rocket 4.4 18:49:21 10° S 18:55:42 87° E 19:02:01 10° N
Cosmos 2219 Rocket 3.0 18:50:44 10° SW 18:56:08 49° WNW 18:58:59 27° N
Lacrosse 5 3.3 18:56:10 10° SW 18:58:38 29° SW 18:58:38 29° SW
Cosmos 2360 Rocket 4.4 18:58:14 10° W 19:02:34 22° NW 19:06:55 10° N
Milstar 3 Cent rocket 4.4 19:00:11 10° SW 19:05:10 26° S 19:05:10 26° S
USA 238 DEB 4.5 19:01:16 10° NNW 19:07:10 42° NNE 19:07:10 42° NNE
USA 238 4.5 19:01:22 10° NNW 19:07:15 42° NNE 19:07:15 42° NNE
Tsikada Rocket 4.4 19:05:14 10° N 19:09:53 54° N 19:09:53 54° N
Cosmos 2016 Rocket 4.3 19:07:32 10° SSW 19:13:39 63° W 19:19:44 10° N
Cosmos 1943 Rocket 4.3 19:12:50 10° N 19:14:16 16° N 19:14:16 16° N
Cosmos 2333 Rocket 4.0 19:18:46 10° WSW 19:23:37 28° NW 19:26:47 18° N
CZ-4C R/B 4.1 19:39:53 10° WSW 19:41:33 21° W 19:41:33 21° W
USA 215 4.4 19:45:33 33° N 19:45:33 33° N 19:51:07 10° WNW
CENTAUR R/B 4.1 20:22:15 10° NW 20:27:18 43° NW 20:27:18 43° NW
